SL-16 DEB

Satellite information

Favourite Embed

Satellite Type and Status

DEBRISIN ORBIT

Key statistics

Satellite SL-16 DEB at a glance.

Uptime

11791

Days in orbit

Revolutions

≈ 14.3

Per day

Orbit

LEO

Low Earth Orbit

Inclination

71.0

Latest

Satellite identification and parameters

Extended collection of information and parameters for SL-16 DEB.

Object identification

Identified? True

Debris? True

Object name: SL-16 DEB

International designator: 1993-016CJ

Object number (NORAD): 39908

Object ID (CCSDS): 39908

Country: COMMONWEALTH OF INDEPENDENT STATES (CIS)

Current information (Y/N): Y

RCS size: SMALL

Orbital parameters

Period: 100.95 minutes

Inclination: 71.002 deg

SMA: 7181.77 km

Apoapsis: 810.906 km

Periapsis: 796.364 km

RAAN: 164.5652 deg

Eccentricy: 0.0010124

Argument of periapsis: 203.0815 deg

Mean anomaly: 156.986 deg

Mean motion: 14.26446703 rev/day

Mean motion (dot): 0.00000557 rev/day2

B* drag term: 0.00025141 1/REarth

Two-line elements (TLE)

Creation date: July 6, 2025, 10:26 p.m.

Reference frame: TEME

Reference center: EARTH

Epoch: July 6, 2025, 2:27 p.m. UTC

TLE line 0: 0 SL-16 DEB

TLE line 1: 1 39908U 93016CJ 25187.60264480 .00000557 00000-0 25141-3 0 9994

TLE line 2: 2 39908 71.0020 164.5652 0010124 203.0815 156.9860 14.26446703134197

Live tracking on map

Real-time ground track for satellite SL-16 DEB.

In-orbit conjunctions

A list of the most updated potential collisions computed for object SL-16 DEB.

Target Orbit TCA Probability of collision Miss distance Type
FENGYUN 1C DEB SSO 2025-04-04 07:33:43 0.0001075314 175.0 (m) DEBRIS
CZ-6A DEB LEO 2025-02-14 15:09:54 0.0002193251 313.0 (m) DEBRIS

Associated space launch

Second generation ELING satellite

SL-16 DEB was lifted into orbit during the mission ‘Zenit-2 | Tselina-2 13’, on board a Zenit-2 space rocket.

The launch took place on March 26, 1993, 2:21 a.m. from 45/1.

For more information about the launch, click the button.

Launch to space Zenit-2 | Tselina-2 13
Zenit-2 | Tselina-2 13

Agency: N/A

Status: Launch Successful

Launch date: March 26, 1993, 2:21 a.m. UTC

Rocket: Zenit-2

Launch pad: 45/1

Location: Baikonur Cosmodrome, Republic of Kazakhstan

...

Latest news about this satellite

There are no fresh news available about this satellite. Check back as we update our databases every day.


Newsletter sign-up

Weekly statistics, charts and insights to help you stay on top of the space industry.